GEMSL EGMC-EGKB

Flight info

Callsign GEMSL
Flight time N/A
Altitude 2300
Route SHM/N0157F050
Aircraft PA24/L-SDGRY/S

Departure

Time N/A
Airport London Southend Airport (EGMC)

Arrival

Time 2026-04-16 21:22
Airport London Biggin Hill Airport (EGKB)
Time Latitude Longitude Altitude Speed Heading
2026-04-16 20:51 50.94037 0.51863 75 ft 0 kts 276°
2026-04-16 20:52 50.94038 0.51844 76 ft 1 kts 269°
2026-04-16 20:52 50.94015 0.51836 75 ft 14 kts 157°
2026-04-16 20:52 50.93984 0.51862 74 ft 0 kts 155°
2026-04-16 20:52 50.93933 0.51901 70 ft 36 kts 152°
2026-04-16 20:53 50.93529 0.52205 61 ft 80 kts 154°
2026-04-16 20:53 50.93014 0.52595 289 ft 87 kts 153°
2026-04-16 20:53 50.92475 0.52944 570 ft 82 kts 172°
2026-04-16 20:53 50.91892 0.52883 759 ft 87 kts 200°
2026-04-16 20:54 50.91418 0.52348 973 ft 84 kts 229°
2026-04-16 20:54 50.91059 0.51639 1184 ft 80 kts 234°
2026-04-16 20:54 50.90775 0.50887 1337 ft 79 kts 240°
2026-04-16 20:54 50.90527 0.50124 1557 ft 78 kts 242°
2026-04-16 20:55 50.90314 0.49325 1794 ft 79 kts 247°
2026-04-16 20:55 50.90236 0.48474 2006 ft 80 kts 269°
2026-04-16 20:55 50.90338 0.47606 2220 ft 80 kts 272°
2026-04-16 20:55 50.90417 0.46735 2384 ft 79 kts 268°
2026-04-16 20:56 50.90454 0.45876 2546 ft 79 kts 264°
2026-04-16 20:56 50.90474 0.45015 2716 ft 78 kts 264°
2026-04-16 20:56 50.90464 0.44168 2898 ft 79 kts 259°
2026-04-16 20:56 50.90414 0.43177 2903 ft 99 kts 266°
2026-04-16 20:57 50.90537 0.42011 2921 ft 114 kts 277°
2026-04-16 20:57 50.90749 0.40799 3115 ft 111 kts 279°
2026-04-16 20:57 50.90922 0.39584 3187 ft 117 kts 274°
2026-04-16 20:57 50.91059 0.38323 3326 ft 114 kts 272°
2026-04-16 20:58 50.91154 0.37097 3465 ft 113 kts 269°
2026-04-16 20:58 50.91188 0.35826 3546 ft 118 kts 264°
2026-04-16 20:58 50.91170 0.34442 3460 ft 132 kts 264°
2026-04-16 20:58 50.91162 0.32958 3435 ft 138 kts 266°
2026-04-16 20:59 50.91171 0.31395 3324 ft 144 kts 267°
2026-04-16 20:59 50.91217 0.29847 3365 ft 138 kts 269°
2026-04-16 20:59 50.91301 0.28316 3289 ft 142 kts 271°
2026-04-16 20:59 50.91426 0.26752 3255 ft 143 kts 274°
2026-04-16 21:00 50.91578 0.25207 3252 ft 142 kts 274°
2026-04-16 21:00 50.91720 0.23628 3128 ft 147 kts 272°
2026-04-16 21:00 50.91854 0.22035 3099 ft 144 kts 272°
2026-04-16 21:00 50.92003 0.20469 3074 ft 144 kts 275°
2026-04-16 21:01 50.92222 0.18902 3023 ft 145 kts 279°
2026-04-16 21:01 50.92514 0.17395 3019 ft 143 kts 282°
2026-04-16 21:01 50.92838 0.15886 2943 ft 146 kts 283°
2026-04-16 21:01 50.93201 0.14390 2916 ft 145 kts 286°
2026-04-16 21:02 50.93590 0.12941 2891 ft 146 kts 288°
2026-04-16 21:02 50.94027 0.11476 2855 ft 147 kts 290°
2026-04-16 21:02 50.94468 0.10021 2838 ft 145 kts 289°
2026-04-16 21:03 50.95369 0.07139 2760 ft 146 kts 291°
2026-04-16 21:03 50.95867 0.05727 2707 ft 147 kts 294°
2026-04-16 21:03 50.96414 0.04349 2650 ft 148 kts 296°
2026-04-16 21:03 50.96985 0.02989 2604 ft 148 kts 297°
2026-04-16 21:04 50.97582 0.01658 2552 ft 148 kts 300°
2026-04-16 21:04 50.98210 0.00354 2486 ft 149 kts 301°
2026-04-16 21:04 50.98860 -0.00931 2453 ft 150 kts 302°
2026-04-16 21:04 50.99541 -0.02193 2380 ft 151 kts 304°
2026-04-16 21:05 51.00239 -0.03444 2323 ft 151 kts 301°
2026-04-16 21:05 51.00839 -0.04804 2246 ft 149 kts 294°
2026-04-16 21:05 51.01231 -0.06316 2181 ft 148 kts 278°
2026-04-16 21:05 51.01347 -0.07905 2126 ft 142 kts 264°
2026-04-16 21:06 51.01240 -0.09445 2062 ft 139 kts 256°
2026-04-16 21:06 51.01277 -0.10991 1854 ft 147 kts 282°
2026-04-16 21:06 51.01873 -0.12316 1796 ft 147 kts 318°
2026-04-16 21:06 51.02834 -0.12804 1788 ft 151 kts 351°
2026-04-16 21:07 51.03901 -0.13035 1804 ft 156 kts 342°
2026-04-16 21:07 51.04920 -0.13441 1929 ft 146 kts 339°
2026-04-16 21:07 51.05896 -0.13809 2048 ft 143 kts 341°
2026-04-16 21:07 51.06862 -0.14139 2124 ft 141 kts 342°
2026-04-16 21:08 51.07795 -0.14382 2086 ft 142 kts 345°
2026-04-16 21:08 51.08749 -0.14679 2242 ft 139 kts 344°
2026-04-16 21:08 51.09670 -0.14972 2264 ft 144 kts 341°
2026-04-16 21:08 51.10643 -0.15394 2228 ft 146 kts 341°
2026-04-16 21:09 51.11646 -0.15627 2247 ft 148 kts 353°
2026-04-16 21:09 51.12658 -0.15253 2229 ft 153 kts 17°
2026-04-16 21:09 51.13695 -0.14892 2240 ft 153 kts 358°
2026-04-16 21:09 51.14728 -0.15108 2279 ft 147 kts 337°
2026-04-16 21:10 51.15634 -0.15782 2324 ft 141 kts 321°
2026-04-16 21:10 51.16430 -0.16670 2337 ft 139 kts 316°
2026-04-16 21:10 51.17194 -0.17601 2355 ft 138 kts 313°
2026-04-16 21:10 51.17948 -0.18567 2321 ft 141 kts 313°
2026-04-16 21:11 51.18705 -0.19550 2337 ft 140 kts 313°
2026-04-16 21:11 51.19439 -0.20577 2312 ft 141 kts 309°
2026-04-16 21:11 51.20140 -0.21658 2320 ft 139 kts 307°
2026-04-16 21:11 51.20829 -0.22737 2315 ft 139 kts 308°
2026-04-16 21:12 51.21511 -0.23826 2315 ft 139 kts 306°
2026-04-16 21:12 51.22256 -0.24802 2310 ft 139 kts 321°
2026-04-16 21:12 51.23153 -0.25449 2279 ft 145 kts 334°
2026-04-16 21:12 51.24128 -0.25863 2305 ft 145 kts 341°
2026-04-16 21:13 51.25124 -0.26071 2324 ft 146 kts 356°
2026-04-16 21:13 51.26018 -0.25514 2340 ft 149 kts 39°
2026-04-16 21:13 51.26554 -0.24147 2306 ft 148 kts 69°
2026-04-16 21:13 51.26950 -0.22554 2257 ft 156 kts 69°
2026-04-16 21:14 51.27363 -0.20966 2321 ft 155 kts 68°
2026-04-16 21:14 51.27686 -0.19308 2316 ft 159 kts 82°
2026-04-16 21:14 51.27677 -0.17575 2340 ft 158 kts 103°
2026-04-16 21:14 51.27429 -0.15855 2285 ft 159 kts 110°
2026-04-16 21:15 51.27118 -0.14150 2226 ft 161 kts 112°
2026-04-16 21:15 51.26778 -0.12454 2240 ft 159 kts 112°
2026-04-16 21:15 51.26451 -0.10768 2237 ft 160 kts 111°
2026-04-16 21:15 51.26169 -0.09038 2222 ft 162 kts 107°
2026-04-16 21:16 51.25986 -0.07259 2234 ft 163 kts 101°
2026-04-16 21:16 51.25945 -0.05440 2209 ft 165 kts 92°
2026-04-16 21:16 51.26010 -0.03617 2210 ft 164 kts 87°
2026-04-16 21:16 51.26148 -0.01819 2157 ft 163 kts 85°
2026-04-16 21:17 51.26316 -0.00011 1966 ft 166 kts 83°
2026-04-16 21:17 51.26479 0.01815 1784 ft 164 kts 87°
2026-04-16 21:17 51.26580 0.03634 1651 ft 165 kts 88°
2026-04-16 21:17 51.26713 0.05421 1563 ft 160 kts 85°
2026-04-16 21:18 51.26843 0.07102 1508 ft 143 kts 87°
2026-04-16 21:18 51.27120 0.08507 1456 ft 129 kts 43°
2026-04-16 21:18 51.27898 0.08670 1423 ft 114 kts 330°
2026-04-16 21:18 51.28417 0.07824 1355 ft 104 kts 292°
2026-04-16 21:19 51.28665 0.06816 1375 ft 92 kts 269°
2026-04-16 21:19 51.28457 0.05865 1278 ft 97 kts 229°
2026-04-16 21:19 51.27953 0.05139 1154 ft 96 kts 220°
2026-04-16 21:19 51.27441 0.04483 1060 ft 94 kts 220°
2026-04-16 21:20 51.26931 0.03843 978 ft 92 kts 216°
2026-04-16 21:20 51.26435 0.03292 908 ft 80 kts 214°
2026-04-16 21:20 51.26042 0.02817 884 ft 62 kts 226°
2026-04-16 21:20 51.25873 0.02193 800 ft 67 kts 271°
2026-04-16 21:21 51.26168 0.01580 748 ft 72 kts 312°
2026-04-16 21:21 51.26644 0.01251 673 ft 79 kts 352°
2026-04-16 21:21 51.27088 0.01700 552 ft 80 kts 58°
2026-04-16 21:21 51.27413 0.02411 382 ft 78 kts 56°
2026-04-16 21:22 51.27692 0.02907 366 ft 17 kts 48°
2026-04-16 21:22 51.27729 0.02993 373 ft 5 kts 37°
2026-04-16 21:22 51.27739 0.02981 373 ft 0 kts 269°
2026-04-16 21:26 51.27686 0.02906 366 ft 43 kts 229°
2026-04-16 21:26 51.27399 0.02329 503 ft 72 kts 230°
2026-04-16 21:27 51.27121 0.01659 813 ft 75 kts 231°
2026-04-16 21:27 51.26803 0.00953 1131 ft 79 kts 230°
2026-04-16 21:27 51.26623 0.00119 1370 ft 88 kts 282°
2026-04-16 21:27 51.27166 -0.00396 1556 ft 109 kts 359°
2026-04-16 21:28 51.27851 0.00207 1727 ft 116 kts 33°
2026-04-16 21:28 51.28483 0.01031 1973 ft 117 kts 30°
2026-04-16 21:28 51.29298 0.01313 1952 ft 131 kts 349°
2026-04-16 21:28 51.30174 0.01074 2047 ft 125 kts 342°
2026-04-16 21:29 51.31074 0.00811 1936 ft 133 kts 348°
2026-04-16 21:29 51.31965 0.00813 1873 ft 124 kts 359°
2026-04-16 21:29 51.32801 0.01137 1773 ft 120 kts 12°
2026-04-16 21:29 51.33579 0.01529 1822 ft 117 kts 14°
2026-04-16 21:30 51.34363 0.01964 1776 ft 122 kts 13°
2026-04-16 21:30 51.35175 0.02397 1650 ft 123 kts 15°
2026-04-16 21:30 51.35917 0.02968 1539 ft 111 kts 41°
2026-04-16 21:30 51.36019 0.04019 1403 ft 99 kts 123°
2026-04-16 21:31 51.35543 0.04678 1276 ft 87 kts 163°
2026-04-16 21:31 51.35013 0.04761 1052 ft 72 kts 210°
2026-04-16 21:31 51.34590 0.04361 824 ft 69 kts 205°
2026-04-16 21:31 51.34161 0.04060 656 ft 66 kts 205°
2026-04-16 21:32 51.33787 0.03774 572 ft 53 kts 203°
2026-04-16 21:32 51.33473 0.03534 555 ft 50 kts 203°
2026-04-16 21:32 51.33166 0.03296 573 ft 47 kts 204°
2026-04-16 21:32 51.32880 0.03076 577 ft 44 kts 203°
2026-04-16 21:33 51.32622 0.02888 524 ft 33 kts 208°
2026-04-16 21:33 51.32486 0.02773 529 ft 13 kts 208°
2026-04-16 21:33 51.32404 0.02717 531 ft 8 kts 191°
2026-04-16 21:33 51.32346 0.02728 533 ft 9 kts 201°
2026-04-16 21:34 51.32282 0.02749 538 ft 12 kts 147°
2026-04-16 21:34 51.32214 0.02812 545 ft 7 kts 133°
2026-04-16 21:34 51.32195 0.02845 545 ft 0 kts 236°
2026-04-16 21:37 51.32197 0.02827 537 ft 9 kts 321°
2026-04-16 21:37 51.32286 0.02740 529 ft 17 kts 322°
2026-04-16 21:38 51.32380 0.02717 523 ft 13 kts 331°
2026-04-16 21:38 51.32471 0.02763 522 ft 35 kts 23°
2026-04-16 21:38 51.32944 0.03112 617 ft 97 kts 23°
2026-04-16 21:38 51.33595 0.03603 853 ft 101 kts 27°
2026-04-16 21:39 51.34265 0.04123 1154 ft 108 kts 11°
2026-04-16 21:39 51.34938 0.03778 1505 ft 105 kts 311°
2026-04-16 21:39 51.35184 0.02816 1907 ft 90 kts 261°
2026-04-16 21:39 51.34889 0.02013 2171 ft 91 kts 218°
2026-04-16 21:40 51.34279 0.01484 2221 ft 106 kts 212°
2026-04-16 21:40 51.33603 0.00920 2259 ft 113 kts 213°
2026-04-16 21:40 51.32914 0.00262 2294 ft 116 kts 216°
2026-04-16 21:40 51.32204 -0.00425 2306 ft 121 kts 216°
2026-04-16 21:41 51.31488 -0.01165 2331 ft 124 kts 217°
2026-04-16 21:41 51.30780 -0.01975 2346 ft 125 kts 220°
2026-04-16 21:41 51.30128 -0.02871 2372 ft 124 kts 225°
2026-04-16 21:41 51.29511 -0.03835 2377 ft 124 kts 228°
2026-04-16 21:42 51.28943 -0.04855 2402 ft 123 kts 231°
2026-04-16 21:42 51.28387 -0.05903 2406 ft 124 kts 232°
2026-04-16 21:42 51.27847 -0.06995 2383 ft 126 kts 233°
2026-04-16 21:42 51.27320 -0.08109 2403 ft 125 kts 234°
2026-04-16 21:43 51.26815 -0.09244 2391 ft 126 kts 237°
2026-04-16 21:43 51.26385 -0.10463 2396 ft 125 kts 243°
2026-04-16 21:43 51.26033 -0.11727 2412 ft 125 kts 246°
2026-04-16 21:43 51.25717 -0.13045 2381 ft 128 kts 249°
2026-04-16 21:44 51.25432 -0.14377 2367 ft 129 kts 250°
2026-04-16 21:44 51.25160 -0.15736 2354 ft 129 kts 251°
2026-04-16 21:44 51.24903 -0.17103 2330 ft 127 kts 252°
2026-04-16 21:44 51.24666 -0.18462 2325 ft 127 kts 253°
2026-04-16 21:45 51.24444 -0.19831 2321 ft 128 kts 254°
2026-04-16 21:45 51.24246 -0.21220 2317 ft 128 kts 255°
2026-04-16 21:45 51.24073 -0.22624 2299 ft 129 kts 257°
2026-04-16 21:45 51.23926 -0.24035 2296 ft 129 kts 258°
2026-04-16 21:46 51.23807 -0.25457 2274 ft 130 kts 260°
2026-04-16 21:46 51.23717 -0.26896 2256 ft 131 kts 262°
2026-04-16 21:46 51.23669 -0.28341 2255 ft 131 kts 265°
2026-04-16 21:46 51.23675 -0.29797 2238 ft 132 kts 268°
2026-04-16 21:47 51.23741 -0.31255 2211 ft 131 kts 271°
2026-04-16 21:47 51.23878 -0.32704 2184 ft 133 kts 276°
2026-04-16 21:47 51.24106 -0.34145 2157 ft 135 kts 282°
2026-04-16 21:47 51.24447 -0.35545 2121 ft 136 kts 289°
2026-04-16 21:48 51.24906 -0.36874 2083 ft 138 kts 296°
2026-04-16 21:48 51.25478 -0.38126 2024 ft 140 kts 303°
2026-04-16 21:48 51.26148 -0.39271 1982 ft 142 kts 310°
2026-04-16 21:48 51.26847 -0.40367 1952 ft 143 kts 300°
2026-04-16 21:49 51.27232 -0.41778 2004 ft 135 kts 277°
2026-04-16 21:49 51.27290 -0.43228 2040 ft 130 kts 261°
2026-04-16 21:49 51.27125 -0.44640 2027 ft 128 kts 255°
2026-04-16 21:49 51.26953 -0.46013 2059 ft 125 kts 257°
2026-04-16 21:50 51.26824 -0.47400 2044 ft 128 kts 260°
2026-04-16 21:50 51.26747 -0.48814 2052 ft 128 kts 263°
2026-04-16 21:50 51.26688 -0.50227 2066 ft 128 kts 263°
2026-04-16 21:50 51.26604 -0.51636 2083 ft 127 kts 261°
2026-04-16 21:51 51.26505 -0.53036 2093 ft 127 kts 260°
2026-04-16 21:51 51.26388 -0.54434 2095 ft 127 kts 258°
2026-04-16 21:51 51.26228 -0.55818 2098 ft 127 kts 251°
2026-04-16 21:51 51.25851 -0.57086 2081 ft 127 kts 237°
2026-04-16 21:52 51.25325 -0.58202 2106 ft 125 kts 232°
2026-04-16 21:52 51.24778 -0.59278 2102 ft 126 kts 231°
2026-04-16 21:52 51.24222 -0.60358 2101 ft 125 kts 231°
2026-04-16 21:52 51.23677 -0.61437 2105 ft 125 kts 232°
2026-04-16 21:53 51.23149 -0.62539 2086 ft 125 kts 233°
2026-04-16 21:53 51.22641 -0.63666 2077 ft 125 kts 235°
2026-04-16 21:53 51.22151 -0.64806 2100 ft 125 kts 236°
2026-04-16 21:53 51.21679 -0.65978 2088 ft 126 kts 237°
2026-04-16 21:54 51.21227 -0.67170 2097 ft 126 kts 238°
2026-04-16 21:54 51.20798 -0.68363 2093 ft 125 kts 240°
2026-04-16 21:54 51.20392 -0.69591 2104 ft 125 kts 242°
2026-04-16 21:54 51.20009 -0.70836 2111 ft 126 kts 240°
2026-04-16 21:55 51.19536 -0.71996 2029 ft 125 kts 233°
2026-04-16 21:55 51.18984 -0.73097 1838 ft 128 kts 231°
2026-04-16 21:55 51.18414 -0.74174 1734 ft 125 kts 230°
2026-04-16 21:55 51.17839 -0.75228 1580 ft 127 kts 229°
2026-04-16 21:56 51.17250 -0.76289 1452 ft 127 kts 230°
2026-04-16 21:56 51.16689 -0.77382 1343 ft 128 kts 228°
2026-04-16 21:56 51.15978 -0.78017 1427 ft 114 kts 191°
2026-04-16 21:56 51.15181 -0.77768 1334 ft 123 kts 160°
2026-04-16 21:57 51.14428 -0.77169 1389 ft 119 kts 160°
2026-04-16 21:57 51.13692 -0.76615 1466 ft 112 kts 157°
2026-04-16 21:57 51.13161 -0.75759 1476 ft 113 kts 122°
2026-04-16 21:57 51.13068 -0.74511 1521 ft 118 kts 82°
2026-04-16 21:58 51.13476 -0.73365 1577 ft 122 kts 44°
2026-04-16 21:58 51.14233 -0.72769 1643 ft 122 kts
2026-04-16 21:58 51.15044 -0.72841 1571 ft 118 kts 338°
2026-04-16 21:58 51.15753 -0.73388 1471 ft 110 kts 317°
2026-04-16 21:59 51.16305 -0.74200 1371 ft 104 kts 301°
2026-04-16 21:59 51.16547 -0.75213 1275 ft 98 kts 258°
2026-04-16 21:59 51.16273 -0.76132 1166 ft 87 kts 238°
2026-04-16 21:59 51.16010 -0.76940 1028 ft 79 kts 242°
2026-04-16 22:00 51.15814 -0.77727 908 ft 74 kts 244°
2026-04-16 22:00 51.15637 -0.78494 724 ft 75 kts 244°
2026-04-16 22:00 51.15447 -0.79253 483 ft 74 kts 240°
2026-04-16 22:00 51.15243 -0.79943 272 ft 61 kts 242°
2026-04-16 22:01 51.15111 -0.80464 212 ft 36 kts 241°
2026-04-16 22:01 51.15047 -0.80703 214 ft 16 kts 246°
2026-04-16 22:01 51.15005 -0.80853 217 ft 14 kts 252°
2026-04-16 22:01 51.14975 -0.80954 216 ft 4 kts 214°
2026-04-16 22:02 51.14914 -0.80953 216 ft 13 kts 169°
2026-04-16 22:02 51.14895 -0.80936 216 ft 0 kts 79°